Regional Weather Roundup
Issued by NWS San Diego, CA

Home | Current Version | Previous Version | Text Only | Print | Product List | Glossary On
Versions: 1 2 3 4 5 6 7 8 9 10 11 12 13 14 15 16 17 18 19 20 21 22 23 24 25 26 27 28 29 30 31 32 33 34 35 36 37 38 39 40 41 42 43 44 45 46 47 48 49 50
000
ASUS46 KSGX 181610
RWRSGX

SAN DIEGO HOURLY WEATHER ROUNDUP
NATIONAL WEATHER SERVICE SAN DIEGO CA
900 AM PDT THU SEP 18 2014

NOTE: "FAIR" INDICATES FEW OR NO CLOUDS BELOW 12,000 FEET WITH NO
SIGNIFICANT WEATHER AND/OR OBSTRUCTIONS TO VISIBILITY.

CAZ042-043-060-061-PZZ750-775-181700-

GREATER SAN DIEGO AREA

CITY           SKY/WX    TMP DP  RH WIND       PRES   REMARKS
LINDBERGH FLD  PTSUNNY   75  66  73 NW3       29.89R
POINT LOMA       N/A     73  67  81 W7          N/A
NATIONAL CITY    N/A     74  69  83 SW3       29.89R
CHULA VISTA      N/A     73  69  86 CALM      29.82R
IMPERIAL BEACH CLOUDY    74  66  76 W7        29.89R
BROWN FIELD    CLOUDY    73  65  75 CALM      29.89S
MIRAMAR MCAS   PTSUNNY   76  63  64 CALM      29.89R
MONTGOMERY FLD PTSUNNY   74  64  71 CALM      29.89S

$$

NORTH SAN DIEGO COUNTY

CITY           SKY/WX    TMP DP  RH WIND       PRES   REMARKS
CAMP PENDLETON MOSUNNY   73  64  73 CALM      29.89R
OCEANSIDE AP   SUNNY     75  62  64 W3        29.88R
OCEANSIDE HBR    N/A     71  67  86 SW3       29.91R
VISTA            N/A     70  64  82 CALM      29.86R
CARLSBAD       MOSUNNY   72  63  73 CALM      29.88R
DEL MAR          N/A     72  67  84 CALM      29.91R
LA JOLLA SCRIP   N/A     71  68  91 N3        29.86
FALLBROOK        N/A     70  69  95 S2        29.87S
ESCONDIDO        N/A     75  67  75 SW3       29.89R
SAN MARCOS       N/A     73  67  80 CALM      29.86R
POWAY            N/A     75  66  72 N2        29.88R

$$

EAST SAN DIEGO COUNTY

CITY           SKY/WX    TMP DP  RH WIND       PRES   REMARKS
RAMONA         MOSUNNY   70  61  73 CALM      29.92R
SANTEE LAKES     N/A     73  67  79 CALM      29.89R
LA MESA          N/A     76  67  73 CALM      29.81R
JAMUL            N/A     71  65  81 CALM      29.85R
DESCANSO N       N/A     69  57  65 CALM      29.72R
MT. LAGUNA OBS   N/A     67  31  26 N12       29.68S
CAMPO            N/A     70  57  63 SW9       29.91R

$$

ORANGE COUNTY AND THE LOS ANGELES BASIN

CITY           SKY/WX    TMP DP  RH WIND       PRES   REMARKS
JOHN WAYNE AP  MOSUNNY   76  60  57 S3        29.88R
LAGUNA BEACH     N/A     69  66  89 CALM      29.85R
LAKE FOREST FR   N/A     67  58  71 CALM      29.79R
SANTA ANA        N/A     71  64  78 CALM      29.84R
HUNTINGTON BCH   N/A     74  65  72 W2        29.91R
FULLERTON      SUNNY     73  60  63 S5        29.87R
LONG BEACH     SUNNY     73  62  68 W8        29.88R
L.A. AP        MOSUNNY   69  62  78 SW6       29.88R
L.A. DOWNTOWN  SUNNY     73  61  65 CALM      29.87R

$$

THE INLAND EMPIRE

CITY           SKY/WX    TMP DP  RH WIND       PRES   REMARKS
CORONA         SUNNY     72  62  70 CALM      29.89R
CHINO          MOSUNNY   73  61  65 SW5       29.90R
ONTARIO        SUNNY     71  61  70 SW6       29.89R
SAN BERNARDINO SUNNY     73  55  53 CALM      29.90R
RIVERSIDE AP   SUNNY     71  61  70 NW5       29.89R
RIV CYN CREST    N/A     70  69  95 CALM      29.87R
MORENO VALLEY    N/A     74  64  70 S3        29.09R
HORSETHIEF CYN   N/A     71  60  68 CALM      29.87R
PERRIS           N/A     69  63  81 S7        29.87R
MENIFEE          N/A     70  64  81 S3        29.95R
HEMET EAST       N/A     73  58  60 CALM      29.82R
FRENCH VALLEY  FAIR      70  61  73 SW6       29.91R
TEMECULA         N/A     70  63  78 SW5       29.87R

$$

SAN BERNARDINO AND RIVERSIDE COUNTY MOUNTAINS

CITY           SKY/WX    TMP DP  RH WIND       PRES   REMARKS
BIG BEAR AP    SUNNY     63  32  31 W10       30.16R
ANGELUS OAKS     N/A     65  36  34 CALM      29.72R
PINE COVE        N/A     64  31  28 NW3       29.71R

$$

SOUTHERN DESERT INCLUDING THE COACHELLA VALLEY

CITY           SKY/WX    TMP DP  RH WIND       PRES   REMARKS
PALM SPRINGS   MOSUNNY   90  57  32 CALM      29.77R
THOUSAND PALMS   N/A     89  56  32 W6        29.71R
PALM DESERT      N/A     90  62  39 CALM      28.36R
THERMAL        SUNNY     91  59  33 N5        29.71R
BLYTHE         SUNNY     89  68  49 S10       29.74R
IMPERIAL AP    SUNNY     91  58  32 SW7       29.70S
EL CENTRO NAS  MOSUNNY   93  52  24 SW9       29.71R
YUMA AZ        SUNNY     91  69  48 SE7       29.73R HX  96
MEXICALI       SUNNY     86  75  70 SE3       29.72  HX  95

$$

UPPER DESERT

CITY           SKY/WX    TMP DP  RH WIND       PRES   REMARKS
VICTORVILLE AP SUNNY     75  46  35 CALM      29.91R
HESPERIA         N/A     79  48  33 W7        29.84R
APPLE VALLEY     N/A     78  47  33 S2G17     29.97S
PALMDALE       SUNNY     78  46  32 SW18      29.90R
LANCASTER      SUNNY     77  46  33 SW16      29.89R
DAGGETT        SUNNY     82  45  27 W13       29.84R
29 PALMS N     SUNNY     83  50  31 CALM      29.91R
NEEDLES        SUNNY     90  66  45 CALM      29.77R

$$

REGIONAL REPORTS

CITY           SKY/WX    TMP DP  RH WIND       PRES   REMARKS
SANTA BARBARA  SUNNY     71  60  68 W5        29.85R
SANDBERG       SUNNY     69  44  40 S7        30.01R
MT. WILSON       N/A     64  43  45 MISG        N/A
LAS VEGAS NV   MOSUNNY   84  59  42 S8        29.78R
PHOENIX AZ     MOSUNNY   83  64  52 E5        29.79S
TIJUANA        CLOUDY    72  63  73 NW3       29.91R

$$

OFFSHORE ISLANDS

CITY           SKY/WX    TMP DP  RH WIND       PRES   REMARKS
CATALINA ARPT  FOG       64  63  96 W15       29.93R VSB<1/4
SAN NICOLAS IS CLOUDY    64  59  83 W14       29.90R HAZE

$$

MARINE AND OFFSHORE BUOY REPORTS

STATION/POSITION SKY/WX   TEMP    WIND        PRES    SWELL
                          AIR SEA DIR/SP/G            HT/PER/DIR
                          (F)     (DEG/KT/KT) (MB)    (FT/S/D)
TANNER BANKS               69 70  290/ 12/ 14 1012.7R   7/200/16
S CLEMENTE BASIN           70 74  300/ 12/ 16 1012.1R   5/220/16
SAN NICOLAS IS.               68                N/A     5/200/15
SO. S. ROSA ISLA           67 70  300/ 10/ 12 1011.5R   7/10
W. S. BARBARA CH           62 60  310/  8/  8 1011.2R   7/270/ 9
M. S. BARBARA CH           66 65  320/  2/  4 1010.5
S. MONICA BASIN            70 72  280/ 16/ 17 1011.0R   3/260/16
S PEDRO CHANNEL               71                N/A     2/200/17
DANA POINT                    70                N/A     3/200/17
CMP PENDLETON NS              72                N/A     3/220/17
OCEANSIDE OFFSHR              73                N/A     3/210/17
TORREY PINES OTR              74                N/A     3/200/17
LA JOLLA 1                 72 65  360/  5/  6 1012.0R
MISSION BAY BUOY              74                N/A     3/200/17
SAN DIEGO BAY                 76              1012.4R

$$




USA.gov is the U.S. government's official web portal to all federal, state and local government web resources and services.